Weather in Mirny

Russia / Arkhangel'skaya Oblast'     62°45′52″N   40°20′09″E
temp.,
°C
wind,
m/s
gust,
m/s
humid.,
%
clouds,
%
prec.,
mm/h
press.,
hPa
HPBL,
m
4 march, thu
thu400:00−8ene229699 0.1 99223
03:00−11nne249792 0.1 99396
06:00−11nnw269790 0.1 994153
09:00−10nnw369593 0.3 995298
12:00−8nnw2490100 0.3 995512
15:00−7nw2488100 0.3 996660
18:00−9nw2397100 0.3 996112
21:00−12nne3795100 1.0 997377
5 march, fri
fri500:00−16n229799 0.1 99920
03:00−18nw249887 0.1 100192
06:00−19nnw269883 0.1 1003179
09:00−16nnw369485 0.1 1004328
12:00−13nnw3687100 0.1 1005791
15:00−12nw3586100 0.3 1007858
18:00−14nnw2793100 0.1 1008266
21:00−17nnw2296100 0.2 101038
6 march, sat
sat600:00−20w119779 0.0 101120
03:00−20wsw2210085 0.0 101146
06:00−20wsw229985 0.0 101131
09:00−16wsw369390 0.0 1010208
12:00−12sw369399 0.1 1008363
15:00−9sw3791100 0.1 1006480
18:00−11ssw31095100 0.1 1003348
21:00−11s4119397 0.1 1000411
7 march, sun
sun700:00−12sse51292100 0.0 996471
03:00−11sse51291100 0.2 992654
06:00−10se51291100 0.4 988744
09:00−10se51292100 1.1 988704
12:00−9ese51090100 1.1 989661
15:00−8e4792100 1.8 991628
18:00−10ene4993100 0.3 992475
21:00−12ne41093100 0.6 994453
8 march, mon
mon800:00−12ne4119399 0.2 996551
03:00−13ne51192100 0.3 999614
06:00−15nne51193100 0.2 1002637
09:00−16nne51092100 0.4 1005504
12:00−16nne51090100 0.0 1008443
15:00−14nne498791 0.1 1010562
18:00−17n399596 0.0 1013414
21:00−21n399998 0.1 1016252